| time (UTC) | temp F | wind direction | speed knots | gust knots | rain 1hr in | rain 24hr in | rain mn in | humidity % | barometer mb |
| 20260506004557 | 70 | 197 | 2.6 | 8.7 | 0.00 | 0.16 | 0.05 | 37 | 1007.9 |
| 20260506003107 | 70 | 185 | 2.6 | 7.0 | 0.00 | 0.16 | 0.05 | 38 | 1007.9 |
| 20260506001616 | 70 | 148 | 3.5 | 7.0 | 0.00 | 0.16 | 0.05 | 38 | 1008.0 |
| 20260506000058 | 69 | 87 | 3.5 | 7.8 | 0.00 | 0.25 | 0.05 | 38 | 1008.1 |
| 20260505234611 | 70 | 209 | 1.7 | 5.2 | 0.00 | 0.25 | 0.05 | 38 | 1008.2 |
| 20260505233054 | 70 | 249 | 4.3 | 8.7 | 0.00 | 0.25 | 0.05 | 39 | 1008.4 |
| 20260505231553 | 69 | 255 | 2.6 | 7.8 | 0.00 | 0.25 | 0.05 | 39 | 1008.5 |
| 20260505230052 | 69 | 201 | 3.5 | 6.1 | 0.00 | 0.25 | 0.05 | 40 | 1008.6 |
| 20260505224551 | 68 | 212 | 3.5 | 7.8 | 0.00 | 0.25 | 0.05 | 41 | 1008.9 |
| 20260505223102 | 67 | 191 | 3.5 | 7.8 | 0.00 | 0.25 | 0.05 | 43 | 1009.1 |
| 20260505221547 | 67 | 185 | 1.7 | 7.0 | 0.00 | 0.25 | 0.05 | 44 | 1009.3 |
| 20260505220048 | 66 | 359 | 0.9 | 6.1 | 0.00 | 0.25 | 0.05 | 44 | 1009.6 |
| 20260505214555 | 67 | 199 | 1.7 | 4.3 | 0.00 | 0.25 | 0.05 | 43 | 1009.7 |
| 20260505213045 | 66 | 80 | 2.6 | 7.8 | 0.00 | 0.25 | 0.05 | 45 | 1009.9 |
| 20260505211549 | 65 | 167 | 4.3 | 7.8 | 0.00 | 0.25 | 0.05 | 47 | 1010.0 |
| 20260505210040 | 64 | 359 | 2.6 | 6.1 | 0.00 | 0.26 | 0.05 | 50 | 1010.3 |
| 20260505204539 | 63 | 174 | 3.5 | 7.8 | 0.00 | 0.26 | 0.05 | 56 | 1010.5 |
| 20260505203049 | 62 | 231 | 2.6 | 7.0 | 0.00 | 0.26 | 0.05 | 55 | 1010.6 |
| 20260505201534 | 61 | 153 | 2.6 | 7.0 | 0.00 | 0.26 | 0.05 | 60 | 1010.6 |
| 20260505200030 | 60 | 206 | 3.5 | 7.0 | 0.00 | 0.27 | 0.05 | 59 | 1010.8 |
| 20260505194527 | 59 | 359 | 2.6 | 5.2 | 0.00 | 0.27 | 0.05 | 64 | 1010.9 |
| 20260505193025 | 58 | 359 | 0.9 | 8.7 | 0.00 | 0.27 | 0.05 | 64 | 1010.9 |
| 20260505191524 | 58 | 359 | 2.6 | 9.6 | 0.00 | 0.27 | 0.05 | 64 | 1010.9 |
| 20260505190029 | 58 | 359 | 1.7 | 7.0 | 0.00 | 0.28 | 0.05 | 64 | 1010.8 |
| 20260505184529 | 58 | 359 | 1.7 | 8.7 | 0.00 | 0.28 | 0.05 | 65 | 1010.9 |
| 20260505183025 | 56 | 359 | 1.7 | 5.2 | 0.00 | 0.28 | 0.05 | 67 | 1010.9 |
| 20260505181515 | 55 | 359 | 1.7 | 7.0 | 0.00 | 0.28 | 0.05 | 69 | 1010.8 |
| 20260505180011 | 54 | 359 | 2.6 | 5.2 | 0.00 | 0.28 | 0.05 | 72 | 1010.8 |
| 20260505174509 | 53 | 359 | 3.5 | 5.2 | 0.00 | 0.28 | 0.05 | 70 | 1010.8 |
| 20260505173005 | 53 | 359 | 4.3 | 8.7 | 0.00 | 0.28 | 0.05 | 72 | 1010.5 |
| 20260505171506 | 53 | 359 | 3.5 | 8.7 | 0.00 | 0.28 | 0.05 | 72 | 1010.3 |
| 20260505170000 | 53 | 359 | 4.3 | 10.4 | 0.00 | 0.28 | 0.05 | 73 | 1010.1 |
| 20260505164603 | 53 | 359 | 7.0 | 10.4 | 0.00 | 0.28 | 0.05 | 74 | 1010.0 |
| 20260505163059 | 53 | 359 | 5.2 | 10.4 | 0.00 | 0.28 | 0.05 | 74 | 1009.9 |
| 20260505161558 | 53 | 359 | 3.5 | 7.0 | 0.00 | 0.28 | 0.05 | 74 | 1009.7 |
| 20260505153054 | 52 | 359 | 0.9 | 3.5 | 0.00 | 0.28 | 0.05 | 77 | 1009.4 |
| 20260505151551 | 52 | 359 | 0.9 | 2.6 | 0.00 | 0.28 | 0.05 | 78 | 1009.2 |
| 20260505124534 | 49 | 144 | 2.6 | 6.1 | 0.00 | 0.28 | 0.05 | 79 | 1007.3 |
| 20260505123033 | 48 | 247 | 1.7 | 4.3 | 0.00 | 0.28 | 0.05 | 81 | 1007.1 |
| 20260505121537 | 49 | 359 | 1.7 | 5.2 | 0.00 | 0.28 | 0.05 | 81 | 1007.0 |
| 20260505120031 | 48 | 203 | 3.5 | 9.6 | 0.00 | 0.28 | 0.05 | 81 | 1006.9 |
| 20260505114530 | 48 | 202 | 1.7 | 5.2 | 0.00 | 0.28 | 0.05 | 82 | 1007.0 |
| 20260505113039 | 48 | 242 | 2.6 | 6.1 | 0.00 | 0.28 | 0.05 | 81 | 1006.9 |
| 20260505111540 | 48 | 359 | 3.5 | 9.6 | 0.00 | 0.28 | 0.05 | 82 | 1006.9 |
| 20260505101533 | 48 | 197 | 0.9 | 4.3 | 0.00 | 0.28 | 0.05 | 83 | 1006.9 |
| 20260505100026 | 48 | 241 | 3.5 | 5.2 | 0.00 | 0.28 | 0.05 | 84 | 1007.1 |
| 20260505094527 | 48 | 229 | 4.3 | 7.0 | 0.00 | 0.28 | 0.05 | 84 | 1006.9 |
| 20260505093030 | 48 | 249 | 2.6 | 5.2 | 0.01 | 0.28 | 0.05 | 84 | 1007.2 |
| 20260505091523 | 48 | 214 | 2.6 | 5.2 | 0.01 | 0.28 | 0.05 | 84 | 1007.7 |
| 20260505090029 | 48 | 212 | 4.3 | 9.6 | 0.02 | 0.28 | 0.05 | 84 | 1007.8 |
| 20260505084528 | 48 | 253 | 4.3 | 9.6 | 0.04 | 0.28 | 0.05 | 84 | 1007.3 |
| 20260505083022 | 48 | 212 | 2.6 | 7.8 | 0.03 | 0.28 | 0.04 | 83 | 1007.6 |
| 20260505081522 | 48 | 359 | 3.5 | 9.6 | 0.03 | 0.28 | 0.04 | 83 | 1007.7 |
| 20260505080027 | 48 | 210 | 4.3 | 12.2 | 0.02 | 0.26 | 0.02 | 83 | 1007.9 |
| 20260505074518 | 48 | 359 | 7.0 | 13.0 | 0.06 | 0.25 | 0.01 | 82 | 1007.6 |
| 20260505073019 | 48 | 201 | 7.0 | 11.3 | 0.08 | 0.25 | 0.01 | 83 | 1007.5 |
| 20260505071513 | 48 | 359 | 6.1 | 13.0 | 0.09 | 0.25 | 0.01 | 81 | 1007.2 |
| 20260505070020 | 49 | 359 | 5.2 | 11.3 | 0.09 | 0.24 | 0.24 | 80 | 1007.3 |
| 20260505064512 | 49 | 359 | 6.1 | 11.3 | 0.03 | 0.18 | 0.18 | 77 | 1007.7 |
| 20260505063003 | 50 | 359 | 6.1 | 17.4 | 0.02 | 0.17 | 0.17 | 75 | 1007.0 |
| 20260505061502 | 51 | 359 | 6.1 | 11.3 | 0.01 | 0.16 | 0.16 | 73 | 1007.0 |
| 20260505054600 | 51 | 359 | 5.2 | 9.6 | 0.00 | 0.15 | 0.15 | 72 | 1006.7 |
| 20260505053059 | 51 | 359 | 8.7 | 13.0 | 0.00 | 0.15 | 0.15 | 72 | 1006.6 |
| 20260505051556 | 51 | 359 | 6.1 | 11.3 | 0.00 | 0.15 | 0.15 | 73 | 1006.8 |
| 20260505041557 | 51 | 359 | 5.2 | 11.3 | 0.00 | 0.15 | 0.15 | 70 | 1006.5 |
| 20260505040101 | 52 | 359 | 4.3 | 8.7 | 0.00 | 0.15 | 0.15 | 72 | 1006.5 |
| 20260505034554 | 51 | 359 | 4.3 | 10.4 | 0.00 | 0.15 | 0.15 | 73 | 1006.1 |
| 20260505033100 | 51 | 359 | 4.3 | 7.8 | 0.00 | 0.15 | 0.15 | 74 | 1005.7 |
| 20260505031555 | 52 | 359 | 6.1 | 11.3 | 0.00 | 0.15 | 0.15 | 73 | 1006.1 |
| 20260505030050 | 51 | 359 | 7.8 | 13.9 | 0.00 | 0.15 | 0.15 | 75 | 1006.1 |
| 20260505024550 | 51 | 359 | 7.8 | 13.0 | 0.00 | 0.15 | 0.15 | 76 | 1006.2 |
| 20260505023048 | 52 | 359 | 7.0 | 13.9 | 0.00 | 0.15 | 0.15 | 76 | 1006.0 |
| 20260505021547 | 52 | 359 | 7.8 | 17.4 | 0.00 | 0.15 | 0.15 | 76 | 1005.7 |
| 20260505020045 | 52 | 359 | 6.1 | 11.3 | 0.01 | 0.15 | 0.15 | 77 | 1005.5 |
| 20260505014545 | 52 | 359 | 5.2 | 13.0 | 0.02 | 0.15 | 0.15 | 76 | 1004.9 |
| 20260505013041 | 53 | 359 | 6.1 | 11.3 | 0.02 | 0.15 | 0.15 | 75 | 1004.9 |
| 20260505011544 | 53 | 359 | 6.1 | 9.6 | 0.02 | 0.15 | 0.15 | 75 | 1005.6 |
| 20260505010048 | 53 | 359 | 4.3 | 8.7 | 0.01 | 0.14 | 0.14 | 74 | 1006.4 |